Meteo Giornale » Osservazioni meteo Senegal » Saint-Louis
ore: 05:00 - Osservazioni Meteo Saint-Louis
Lat. 16° 3' N Lon. 16° 27' W Alt. 4 metri s.l.m.
29 °C
Sereno
Temp. 24 Ore
28 °C
35 °C
Ovest
14.8 Km/h
Dew point 27 °C
Umidità 89 %
Visibilità 10 Km
Il sole sorge alle ore 06:52
Il sole tramonta alle ore 19:18
| Data e Ora | Cielo e Fenomeni | T °C | DP °C | Um. % | Pres. hPa | Vis. km | Vento km/h | |
|---|---|---|---|---|---|---|---|---|
| Oggi h: 05:00 | Sereno | 29 | 27 | 89 | 1011 | 10 | O 14.8 | |
| Oggi h: 04:00 | Sereno | 29 | 27 | 89 | 1012 | 10 | O/NO 11.1 | |
| Oggi h: 03:00 | Sereno | 30 | 27 | 84 | 1011 | 10 | O/NO 14.8 | |
| Oggi h: 02:00 | Sereno | 30 | 27 | 84 | 1012 | 10 | O/NO 14.8 | |
| Oggi h: 01:00 | Sereno | 30 | 27 | 84 | 1012 | 10 | O/NO 11.1 | |
| Oggi h: 00:00 | Sereno | 30 | 27 | 84 | 1013 | 10 | O/NO 11.1 | |
| Ieri h: 23:00 | Sereno | 30 | 26 | 79 | 1012 | 10 | O/NO 7.4 | |
| Ieri h: 22:00 | Sereno | 31 | 27 | 79 | 1012 | 10 | O/NO 7.4 | |
| Ieri h: 21:00 | Sereno | 31 | 27 | 79 | 1011 | 10 | O/NO 11.1 | |
| Ieri h: 20:00 | Sereno | 31 | 26 | 74 | 1011 | 10 | O/NO 11.1 | |
| Ieri h: 19:00 | Sereno | 32 | 26 | 70 | 1010 | 10 | O/NO 11.1 | |
| Ieri h: 18:00 | Sereno | 33 | 27 | 70 | 1010 | 10 | NO 11.1 | |
| Ieri h: 17:00 | Sereno | 34 | 26 | 63 | 1010 | 10 | NO 14.8 | |
| Ieri h: 16:00 | Sereno | 35 | 26 | 59 | 1011 | 10 | NO 18.5 | |
| Ieri h: 15:00 | Poco Nuvoloso | 35 | 27 | 63 | 1011 | 10 | N 18.5 | |
| Ieri h: 14:00 | Sereno | 35 | 28 | 67 | 1012 | 10 | NE 14.8 | |
| Ieri h: 13:00 | Sereno | 35 | 28 | 67 | 1012 | 10 | N/NO 14.8 | |
| Ieri h: 11:00 | Sereno | 34 | 27 | 67 | 1013 | 10 | N 11.1 | |
| Ieri h: 10:00 | Sereno | 33 | 26 | 66 | 1013 | 10 | N/NE 14.8 | |
| Ieri h: 08:00 | Sereno | 29 | 27 | 89 | 1014 | 10 | E/NE 11.1 | |
| Ieri h: 07:00 | Sereno | 28 | 26 | 88 | 1012 | 10 | N 3.7 | |
| Ieri h: 06:00 | Sereno | 28 | 26 | 88 | 1012 | 10 | N 3.7 | |



